カタログに戻る

SITRO-AIS-17

運用中ナビゲーションSSO
NORAD 61789·PAYLOAD·🇷🇺 Russia
この衛星名は、まだ公式ソースで確認されていません。

打ち上げ Nov 4, 2024 から Vostochny Cosmodrome

Loading…

次のパス (今後24時間)

TLE

最新Source: Space-Track

元期: Sep 14, 2026, 17:27 UTC

1 61789U 24199BG  26257.72742559  .00001593  00000-0  13828-3 0  9992
2 61789  97.3188  91.8236 0006738 123.3705 236.8165 14.98323793145441

AllMySatでSITRO-AIS-17をリアルタイム追跡

Download on the App Store